User: anonymous   Login
Location: Forst
(46.9333°N, 15.4333°E)
Time: 04:46:19
(UTC+00:00)
Language:

Cosmos 1680 Rocket - Orbit

View from above orbital plane
View from above orbital plane
View from above satellite
View from above satellite

Ground track
Ground track

The orbit data is extracted from the following two-line orbital elements,

1 16012U 85079B   21055.63581577  .00000060  00000-0  29240-4 0  9991
2 16012  74.0602 181.7715 0013847 110.0595 250.2050 14.36361470857194
Epoch (UTC): 24 February 2021 15:15:34
Eccentricity: 0.0013847
inclination: 74.0602°
perigee height: 760 km
apogee height: 780 km
right ascension of ascending node: 181.7715°
argument of perigee: 110.0595°
revolutions per day: 14.36361470
mean anomaly at epoch: 250.2050°
orbit number at epoch: 85719

The dashed part of the orbit path shows where the satellite is in the earth's shadow,  

DLR